RH
46 43 47 64 37 33 26 15 10 21 66 67 74 88 70 63 57 53 42 29 30 29 26 18 18 21 18 14 13 11 12 10 10 10 11 11 10 10 10 12 13 43 48 48 47
92 79 86 94 93 43 32 28 15 10 72 60 75 92 72 98 66 62 46 41 40 40 31 21 20 25 21 17 16 14 12 12 12 12 13 13 12 10 9 15 16 18 44 49 45
63 64 92 95 93 93 80 29 26 13 21 82 76 85 100 85 80 61 48 34 34 36 29 23 27 27 23 22 20 17 15 14 15 16 18 15 14 13 11 8 10 24 28 48 48
66 55 62 91 95 95 87 40 27 21 14 98 69 81 76 90 74 54 47 36 32 26 26 28 27 28 24 19 18 18 18 19 18 17 16 16 15 11 12 13 11 10 30 44 47
91 74 80 85 95 94 90 77 32 21 17 100 85 71 96 98 80 64 49 41 41 36 32 32 31 26 19 16 15 15 15 15 14 13 14 14 13 13 10 11 14 14 10 31 44
94 52 90 96 96 97 97 88 73 27 14 38 83 98 67 75 83 84 77 69 55 40 37 35 28 21 16 17 19 19 18 18 18 19 19 19 16 18 16 12 11 10 16 11 26
62 49 77 96 92 96 84 76 49 63 16 16 88 98 79 100 95 86 81 67 52 43 40 30 18 18 22 24 25 26 25 26 26 24 23 22 14 15 18 24 15 10 9 18 13
74 63 61 78 75 78 67 49 43 48 35 23 66 89 90 97 99 89 77 67 52 45 34 20 20 28 31 34 34 32 30 29 25 27 35 56 24 31 33 57 52 51 35 10 17
77 88 91 80 70 69 41 17 21 31 30 61 98 95 98 98 98 100 79 59 50 38 22 23 37 39 37 33 31 35 38 35 34 48 59 70 63 35 48 56 60 55 46 23 10
63 67 82 84 82 59 52 99 72 49 55 98 93 89 97 90 96 95 68 59 42 24 35 43 38 35 28 40 43 51 61 51 57 57 73 86 72 41 49 75 71 54 44 25 18
66 73 66 76 80 63 70 99 98 96 90 98 89 74 84 97 95 82 71 47 28 43 45 39 28 38 52 53 56 62 72 79 66 84 100 72 74 48 52 62 65 45 83 62 28
76 66 66 69 82 72 77 96 98 97 98 97 98 98 98 96 95 75 41 35 49 48 42 31 41 50 52 56 70 83 94 70 82 91 99 98 77 58 60 67 51 69 79 71 80
78 68 71 70 62 63 81 95 98 95 95 97 98 98 96 70 50 36 44 54 52 52 42 43 53 60 73 84 88 90 100 83 98 95 82 94 83 75 66 67 68 85 85 78 73
72 63 74 60 63 66 53 95 97 96 93 97 98 96 86 65 67 67 61 62 63 70 68 61 60 72 87 84 97 100 89 99 96 99 96 95 90 80 75 76 83 86 83 80 66
64 68 61 53 52 39 31 98 100 85 93 96 98 77 74 90 72 75 74 72 77 94 82 78 76 83 91 84 99 99 96 99 99 99 96 98 100 85 75 78 75 79 89 86 86
66 56 63 61 43 32 48 89 95 78 97 98 97 82 90 100 92 74 80 80 85 85 83 79 93 91 92 100 100 99 99 100 100 98 99 93 95 77 84 78 74 79 66 71 78
49 58 52 43 47 43 63 95 77 88 96 98 93 84 92 94 88 80 82 86 90 92 95 100 96 99 100 99 100 98 100 96 98 98 92 93 93 86 92 99 100 100 98 85 93
40 43 52 60 47 67 72 70 82 98 100 96 87 90 91 89 85 88 95 93 86 96 91 88 84 99 99 97 99 99 100 98 97 97 96 95 98 90 94 100 99 97 99 99 98
38 36 34 36 51 67 57 60 97 93 86 78 90 81 84 91 87 93 95 87 96 96 95 88 91 93 88 94 100 100 99 99 98 99 95 96 98 97 96 99 99 96 98 99 99
53 48 49 60 63 58 52 73 94 83 94 89 82 83 86 82 78 81 87 89 91 97 96 96 92 82 82 87 97 99 98 98 98 97 96 93 98 99 98 98 96 98 98 98 98
44 60 77 71 68 63 74 90 89 96 90 92 85 78 75 85 89 87 90 90 99 99 100 100 94 69 77 72 79 81 84 90 96 96 97 90 94 99 98 98 98 98 98 98 98
38 51 76 74 70 83 94 97 99 100 96 88 78 79 86 92 99 100 91 93 93 96 93 83 76 68 58 70 67 69 77 74 75 67 74 76 92 100 100 99 99 99 98 99 99
48 62 72 66 72 84 89 89 89 81 86 84 84 84 86 87 88 85 80 76 77 76 78 77 78 78 57 56 54 62 71 60 69 65 71 77 78 98 99 98 99 99 90 85 76
58 64 60 53 57 66 71 78 84 84 78 80 94 89 85 86 78 71 75 69 68 73 71 70 69 72 69 71 70 59 53 54 55 56 65 65 74 91 96 95 79 74 72 72 72
54 55 54 56 58 56 58 69 72 80 81 90 93 79 75 74 71 71 70 64 60 56 53 51 56 60 61 58 56 57 52 53 45 52 53 57 61 65 67 70 70 70 71 72 71
52 59 51 52 56 61 65 68 72 79 77 76 71 66 64 57 58 61 58 52 45 47 50 47 51 51 51 51 56 48 49 53 50 51 52 56 57 54 54 59 64 66 64 64 64
49 50 53 56 58 57 55 58 60 67 65 63 60 62 55 46 47 48 44 40 41 41 43 44 44 45 42 50 57 50 40 41 44 48 50 51 57 58 60 62 64 64 65 65 67
Wind_Speed
24 29 32 30 31 34 35 34 36 36 34 28 24 26 24 20 19 17 18 16 16 16 16 14 12 11 12 13 13 13 17 21 22 22 22 18 20 25 30 31 33 31 29 24 21
28 26 21 22 27 31 32 32 32 37 36 35 28 27 30 20 20 17 16 15 16 16 16 15 13 13 14 14 16 17 23 20 21 23 26 25 24 23 30 35 34 39 33 28 23
25 27 22 25 25 20 25 28 31 32 36 33 32 24 29 21 21 19 17 16 16 17 16 15 14 14 15 15 18 22 26 23 26 26 29 30 29 27 31 34 38 38 41 31 24
31 29 24 26 23 22 24 21 25 27 32 36 35 34 20 24 14 17 19 17 16 14 14 15 14 14 15 16 18 22 24 25 28 27 31 30 32 32 32 35 32 39 44 40 31
28 25 19 24 25 24 20 24 16 23 27 31 26 30 27 20 19 10 12 13 13 14 13 13 14 15 16 14 16 22 24 25 27 29 27 28 33 34 38 33 32 35 41 47 41
24 25 23 23 23 25 23 20 23 17 24 32 31 30 33 24 19 20 19 16 15 14 13 13 15 14 15 14 18 22 25 26 29 28 29 34 36 35 42 32 33 37 42 45 47
19 21 26 21 19 17 21 24 24 24 21 26 37 32 27 20 19 19 18 17 15 13 13 12 12 13 13 14 19 20 27 28 28 28 33 31 45 44 29 27 35 37 41 47 50
20 19 23 21 20 19 19 21 22 23 19 24 36 28 25 32 19 15 16 16 13 13 12 12 12 13 15 17 21 24 27 28 21 19 19 24 45 27 22 19 21 29 36 46 52
16 14 14 14 16 15 14 10 16 24 23 29 39 31 23 18 18 19 16 14 13 13 12 11 12 14 15 17 18 16 18 21 19 14 15 20 35 21 19 28 33 31 33 37 48
14 12 8 11 13 10 11 16 18 29 34 42 38 25 17 18 17 16 16 14 11 10 10 11 11 12 11 9 6 9 16 19 21 17 23 29 39 30 24 21 26 27 23 25 39
10 8 8 9 12 10 18 25 30 29 33 35 30 28 28 23 23 17 13 11 10 8 8 8 7 2 3 6 9 11 16 23 21 19 22 25 28 26 17 25 22 15 15 16 21
8 5 6 10 9 11 15 10 29 22 23 16 20 11 17 14 15 15 13 10 7 7 6 5 1 2 6 9 11 15 20 21 16 18 24 27 33 24 15 11 12 10 7 9 8
5 1 5 7 4 10 12 7 23 30 21 21 22 17 24 16 13 13 10 7 8 8 5 5 3 8 9 9 14 17 21 15 19 21 15 16 13 7 6 7 6 5 6 6 7
5 4 2 4 3 8 6 5 22 30 19 19 24 21 19 18 14 12 10 8 7 4 3 3 6 7 9 11 12 20 7 11 12 14 8 15 7 6 3 3 7 4 4 3 7
10 7 8 9 9 8 4 16 21 12 6 9 14 23 19 9 12 12 12 8 5 4 4 3 6 9 12 12 11 13 10 10 14 14 12 7 4 4 4 6 9 10 8 6 6
13 14 12 11 11 16 12 7 13 8 5 6 15 23 17 11 9 11 10 6 3 3 6 6 10 11 9 11 13 13 17 15 14 13 3 4 5 4 8 10 10 12 10 8 8
18 16 16 20 21 20 10 7 6 9 9 13 20 21 13 11 10 9 7 4 1 1 5 6 3 6 6 6 6 7 9 4 2 1 4 2 5 8 11 13 8 7 8 8 10
20 19 25 23 22 19 12 12 15 10 13 20 25 19 13 10 9 8 5 5 2 0 2 3 2 4 4 5 6 7 6 4 4 1 2 4 3 6 13 7 5 5 5 8 9
26 24 21 19 20 13 11 12 8 17 25 28 20 17 12 5 7 5 5 4 1 1 2 1 3 6 7 11 10 4 6 9 5 3 1 3 5 4 12 4 4 6 7 13 10
22 23 21 16 11 13 21 23 19 30 26 12 8 7 6 9 7 5 1 4 4 3 4 0 2 4 8 10 12 10 8 4 4 3 2 3 5 11 11 3 2 4 2 4 8
21 24 22 24 25 33 40 32 27 19 15 9 7 11 11 8 7 5 3 5 4 3 4 1 1 2 4 6 11 13 8 6 6 4 2 2 4 13 7 5 3 4 8 10 11
15 21 18 20 27 30 26 22 18 16 16 15 12 10 7 8 5 3 3 2 3 2 2 4 3 3 1 5 9 12 17 5 4 2 2 2 4 6 12 12 10 7 14 16 21
16 24 21 20 26 25 25 23 21 19 14 10 8 7 8 7 4 4 4 3 3 2 4 5 4 6 3 1 5 9 19 7 3 3 0 1 2 8 13 14 18 21 23 22 22
23 20 18 20 21 22 22 19 17 11 10 11 9 8 6 5 4 5 6 5 5 5 3 2 4 4 2 3 9 14 18 11 3 1 3 5 11 13 16 16 16 15 16 15 15
16 12 10 13 18 18 18 15 13 12 12 9 9 11 10 6 9 8 7 6 5 4 4 3 2 2 2 4 7 10 13 14 6 5 3 10 9 11 12 11 11 10 9 8 8
15 16 15 17 16 15 15 12 10 10 9 10 10 8 4 2 6 6 4 4 4 5 4 4 3 4 3 3 6 7 6 5 8 9 7 7 5 6 6 7 6 4 3 2 1
12 12 12 15 14 11 10 9 8 7 8 8 7 8 6 6 5 3 2 2 4 5 4 4 4 4 3 6 10 7 3 1 2 3 3 1 2 3 3 4 4 4 4 6 7
Wind_Direction
289 284 276 273 256 255 253 246 240 234 233 226 234 241 236 241 242 241 242 241 238 235 236 236 239 243 246 246 248 252 250 258 269 280 286 279 264 253 252 249 238 239 244 244 236
289 279 288 283 279 261 254 247 243 235 223 230 217 243 241 240 242 237 234 235 237 236 234 235 235 239 244 248 250 250 257 265 270 276 280 275 266 256 250 247 242 237 242 246 238
295 296 300 271 273 279 273 253 242 235 230 225 222 234 238 236 243 233 234 237 242 236 233 230 234 243 247 251 253 256 259 267 268 273 273 271 269 271 262 252 246 243 240 239 241
285 279 276 290 283 281 273 273 249 236 229 224 221 221 242 240 236 236 232 231 223 212 227 239 239 240 248 251 255 259 265 269 273 273 277 285 285 274 267 268 257 247 245 240 237
281 284 260 265 265 270 283 261 265 238 223 210 212 219 219 224 225 219 198 204 221 235 240 241 245 248 247 254 258 263 265 269 274 277 282 280 275 279 270 261 260 252 245 242 238
287 282 257 261 265 258 261 251 254 243 223 210 213 223 223 235 225 225 230 240 235 240 240 245 253 263 264 267 263 269 277 280 277 281 284 279 274 267 268 280 264 254 247 244 240
296 286 264 275 269 264 267 254 231 232 223 208 217 221 209 213 225 219 223 228 231 235 243 255 262 264 271 277 277 283 285 279 283 292 280 279 273 269 287 275 267 259 248 242 239
295 281 266 270 269 272 274 256 235 206 220 196 215 219 215 205 206 218 223 226 228 236 242 247 257 268 275 279 282 287 287 295 305 291 285 277 268 282 282 279 271 270 260 242 235
301 305 268 260 264 267 276 230 223 184 199 189 205 209 200 185 195 210 207 214 220 230 242 252 261 268 279 282 291 289 286 296 308 301 284 274 281 288 291 294 287 286 279 260 238
298 294 288 259 262 261 191 151 193 180 174 181 190 197 222 205 211 194 205 215 216 218 241 261 271 276 278 283 298 293 298 300 298 311 294 286 284 292 295 287 286 284 276 267 242
295 286 285 258 263 248 193 134 141 167 183 175 189 204 198 196 188 196 204 201 206 228 252 268 264 253 251 275 278 285 291 293 321 325 297 291 294 292 285 289 275 276 283 277 258
259 265 263 261 265 278 261 72 150 149 137 167 163 144 174 187 182 183 180 192 212 227 238 239 143 209 256 260 276 285 289 308 326 335 315 307 298 300 287 273 259 264 287 286 257
225 169 230 265 320 280 241 17 127 176 158 134 123 173 137 142 160 161 177 189 197 219 225 225 221 257 275 273 281 286 280 314 307 328 332 326 326 347 273 255 218 272 286 271 210
131 99 139 78 47 16 308 333 125 122 107 117 119 120 133 137 142 159 171 180 189 193 238 273 231 261 279 285 277 286 301 317 315 309 299 314 295 340 290 230 226 232 260 189 194
97 101 90 87 80 73 87 94 143 142 86 138 123 145 137 129 149 160 166 174 172 185 226 267 273 288 286 294 276 269 305 294 296 284 295 284 250 342 320 256 264 273 259 237 218
85 103 93 95 90 111 131 115 104 104 72 106 134 140 132 138 139 157 159 164 173 246 271 259 264 277 283 285 279 299 296 305 272 269 258 313 235 313 341 309 286 283 252 262 250
86 85 90 98 102 89 105 89 85 58 99 120 138 130 129 137 136 141 140 130 180 92 337 325 300 303 292 313 298 303 312 305 296 234 233 301 211 278 306 308 305 288 291 268 268
81 87 99 95 96 96 83 68 60 78 109 129 132 127 124 125 131 140 127 103 115 109 314 331 306 332 329 341 304 308 292 275 299 256 282 233 280 296 338 330 280 267 263 284 285
83 87 91 93 105 69 103 101 87 105 121 127 127 133 136 131 139 121 113 87 3 267 221 291 14 71 57 41 17 316 316 325 273 272 254 326 331 331 345 326 277 276 263 263 241
74 85 89 86 80 113 121 105 113 121 117 110 109 135 150 139 135 111 100 130 116 101 204 185 305 46 43 39 8 11 331 321 310 309 349 342 335 344 350 321 214 249 254 124 133
82 72 80 92 98 110 105 112 120 106 99 88 108 137 134 131 128 142 157 145 144 104 89 113 28 359 358 31 10 355 358 327 308 300 343 329 335 350 18 40 94 108 99 104 121
75 77 78 105 108 94 95 109 108 102 103 103 109 118 117 117 121 103 170 177 126 80 48 33 327 293 70 350 1 17 5 299 245 248 139 136 7 37 65 84 100 86 95 102 108
94 94 95 100 99 96 95 94 102 110 108 98 110 113 122 109 90 96 106 109 113 71 31 7 347 316 310 338 6 3 3 356 215 243 301 137 145 98 102 101 100 103 101 97 92
106 105 99 89 99 104 104 100 102 101 97 110 109 110 121 115 106 123 105 81 89 78 47 32 23 47 118 17 350 353 14 26 62 55 93 103 137 111 115 115 106 102 99 94 90
105 104 96 95 104 106 109 109 111 118 123 117 114 123 124 114 114 115 101 81 56 34 20 19 352 11 13 17 12 1 11 29 56 66 75 127 121 118 119 121 117 110 101 89 77
112 107 104 107 110 109 110 113 111 117 121 115 112 112 92 121 116 121 94 70 47 18 349 339 327 330 309 302 330 347 351 7 63 87 100 116 136 146 135 135 136 127 107 81 347
111 103 111 113 109 104 97 98 102 108 121 126 115 111 105 107 119 124 100 58 13 360 353 350 323 313 292 315 312 293 306 25 81 101 107 136 260 218 212 201 213 230 264 277 284